Terminal Aerodrome Forecast
Issued by NWS

Home | Current Version | Previous Version | Text Only | Print | Product List | Glossary On
Versions: 1 2 3 4 5 6 7 8 9 10 11 12 13 14 15 16 17
000
FTUS43 KIND 310100 AAA
TAFHUF
TAF AMD
KHUF 310107Z 3101/3124 19010KT P6SM BKN015
     FM310400 20006KT 5SM BR BKN015
     FM311800 21010KT P6SM BKN025
     FM312100 19007KT P6SM BKN050=

USA.gov is the U.S. government's official web portal to all federal, state and local government web resources and services.